Wind_Speed
8 7 7 7 6 5 4 3 2 1 0 2 3 4 5 6 7 9 9 9 8 7 7 6 6 6 6 5 4 3 3 3 3 3 5 6 5 5 5 5 6 6 6 5 6 7 10 12 12 12 11 11 11 10 11 9 8 8 6 6 6 6 4 3 5 2 2 8 12 12 11 9 11 9 7 7 6 9 8 6 7 6 5 5 8 11 13 13
8 7 7 6 6 5 4 4 3 3 1 1 2 4 5 6 8 9 9 9 8 7 6 5 6 5 5 4 3 2 3 2 2 3 4 3 3 5 6 6 6 5 5 4 5 9 11 12 13 12 11 12 10 10 11 9 10 9 5 5 6 3 3 3 1 1 1 7 11 10 8 6 9 10 9 8 7 9 8 8 9 7 7 6 7 11 14 14
9 7 6 6 6 5 5 5 4 4 3 2 3 4 5 7 8 8 8 8 7 6 5 4 4 3 3 3 3 3 3 2 3 5 5 5 7 7 6 5 5 5 5 4 7 10 10 10 12 13 12 11 10 10 11 10 10 8 5 6 4 3 4 4 1 2 2 6 11 9 7 6 7 9 8 7 7 8 7 7 8 7 9 9 10 13 14 14
9 6 5 5 5 5 6 6 6 5 4 4 3 4 5 6 7 7 7 6 6 5 4 3 2 2 3 4 4 4 4 4 6 7 6 6 7 5 4 3 4 5 5 6 8 11 9 9 11 12 11 10 10 10 10 10 8 6 6 4 3 4 3 5 4 4 4 3 8 9 8 7 7 6 7 6 6 7 7 6 4 4 9 12 13 14 14 14
8 6 4 4 4 5 6 6 6 6 5 5 4 4 4 5 6 6 6 6 5 4 3 3 2 2 4 5 4 5 3 4 7 7 6 7 5 4 3 3 4 4 6 7 8 10 9 9 11 11 11 8 10 10 9 10 6 5 6 3 5 3 3 7 6 5 5 3 6 8 7 7 7 6 6 7 6 1 2 5 3 3 9 12 14 15 14 13
8 6 4 3 4 5 5 6 6 6 6 5 4 4 3 4 5 6 6 6 5 5 4 3 3 3 5 5 5 3 4 1 8 8 7 7 5 4 3 4 5 5 6 7 7 9 8 9 12 12 10 7 9 9 7 9 6 5 5 1 2 1 2 8 7 5 4 4 6 5 4 6 7 7 6 7 5 4 5 4 3 5 9 11 13 14 14 13
9 7 5 3 3 4 5 5 6 5 6 5 5 5 3 3 4 5 6 6 6 5 4 4 4 5 6 5 4 2 3 4 8 8 7 7 5 5 4 6 6 6 6 4 5 7 8 10 11 10 8 6 8 8 6 9 8 7 3 6 4 2 5 8 7 5 2 2 3 2 3 6 7 5 5 7 3 2 3 5 5 7 10 11 12 12 13 12
10 8 6 4 3 3 4 4 5 5 5 5 5 5 5 4 4 5 6 6 6 5 5 5 5 6 6 5 3 4 4 5 6 8 8 6 5 5 5 6 5 6 5 3 4 5 7 9 8 9 8 4 7 7 7 9 9 8 3 8 7 5 7 7 6 5 2 2 2 3 4 4 3 1 4 6 4 4 4 7 8 8 10 11 12 12 12 11
10 9 7 6 4 3 4 4 5 5 5 5 5 5 5 4 4 5 6 6 5 4 5 6 6 5 5 4 4 4 5 5 6 9 7 5 5 4 4 4 3 4 3 1 2 4 5 7 6 6 5 3 7 7 8 9 6 6 4 9 8 7 8 6 5 4 3 2 2 4 5 3 3 2 6 6 5 5 6 8 9 10 11 11 12 12 12 11
10 9 8 7 6 4 4 4 5 5 5 5 5 4 4 4 3 4 6 6 5 4 5 5 5 5 5 3 5 3 6 5 6 7 7 5 4 3 3 2 2 2 1 1 1 2 2 4 5 5 3 4 6 5 7 7 2 5 7 9 8 7 7 5 4 4 3 3 2 5 4 4 4 5 6 7 6 6 8 9 9 10 11 11 12 12 11 11
10 9 8 8 7 6 5 5 5 5 5 5 5 4 4 3 3 3 5 5 5 4 4 4 5 4 5 2 5 1 6 5 4 4 6 7 5 3 2 1 1 1 1 1 0 0 0 1 5 5 3 5 7 5 5 2 3 7 9 9 7 6 7 5 5 4 4 4 2 4 3 4 5 6 4 9 7 8 9 10 10 10 11 11 12 11 11 11
10 9 9 9 9 8 8 7 7 6 6 6 5 4 3 2 2 2 4 5 5 4 4 4 4 4 4 3 2 1 3 3 4 4 4 7 8 6 4 2 1 1 1 1 1 1 1 3 6 5 2 6 8 6 5 4 4 8 9 7 7 7 7 7 6 4 5 3 3 4 5 7 9 7 6 8 6 7 9 10 10 10 10 11 11 11 11 11
10 10 10 10 10 10 10 9 8 8 7 6 5 5 3 3 2 2 4 5 4 3 4 3 3 3 2 2 1 1 2 3 4 4 4 7 9 7 4 3 2 3 3 0 1 3 4 4 4 3 2 5 4 5 6 7 6 8 7 5 5 7 7 9 6 4 6 3 4 6 6 7 10 9 8 7 6 8 9 10 10 10 9 10 11 11 11 11
11 11 11 11 11 11 11 10 9 8 7 7 5 4 3 3 3 3 4 5 4 3 3 3 3 3 1 1 0 1 2 4 4 3 4 7 8 7 5 4 4 4 3 0 1 4 5 3 3 4 3 2 4 7 7 7 6 6 5 5 5 6 5 9 5 6 8 4 5 8 6 4 9 11 8 6 7 8 9 10 10 10 9 10 10 11 12 12
11 11 11 11 12 11 11 10 9 8 8 7 6 4 3 3 4 5 5 4 4 3 3 3 3 3 2 1 1 1 2 3 4 5 7 8 6 6 5 5 4 2 1 1 2 3 4 4 4 5 4 3 7 8 6 5 5 5 4 5 6 5 4 9 5 7 6 4 8 9 6 3 8 11 8 7 9 10 9 10 10 9 9 10 10 12 12 13
11 10 11 11 12 11 11 10 10 10 8 8 7 5 4 4 5 6 6 5 3 3 3 3 3 3 3 2 3 2 3 2 5 7 9 9 6 6 6 6 4 2 1 2 3 3 4 4 2 3 4 5 7 7 5 5 5 5 6 5 4 6 4 6 6 6 4 4 10 11 7 2 6 10 9 8 11 11 10 9 10 9 9 10 10 11 12 13
10 10 10 11 11 11 10 10 11 11 9 8 7 7 5 5 6 7 7 6 3 3 2 2 3 3 2 2 4 4 3 2 5 7 10 11 8 6 6 5 4 2 1 3 4 4 4 4 3 4 4 4 4 4 5 6 5 6 6 4 3 5 4 3 5 7 6 6 9 11 9 5 4 10 11 11 12 12 10 9 10 10 10 11 11 12 12 13
9 9 9 10 10 10 10 10 11 12 12 10 7 7 5 4 4 5 7 8 4 1 1 2 3 3 2 4 3 4 3 2 5 8 10 11 8 7 6 5 3 3 4 6 5 5 5 5 5 4 4 4 4 6 6 4 3 4 5 4 3 5 6 4 3 6 6 8 9 10 11 9 5 9 12 12 11 11 10 10 10 10 11 11 12 13 14 15
9 7 8 9 9 9 9 10 10 11 13 12 8 7 6 4 2 2 8 8 2 1 1 2 2 1 4 5 4 3 3 3 5 7 9 10 8 7 6 5 3 4 6 6 6 5 4 5 5 5 5 5 4 5 4 3 2 1 2 3 3 4 6 3 4 5 2 6 10 10 10 12 10 10 12 13 12 11 12 12 11 11 11 13 14 15 16 16
8 6 6 6 7 8 8 9 10 11 13 14 10 6 6 6 1 1 7 5 1 4 3 1 2 1 4 5 3 2 3 3 4 6 9 10 8 7 6 5 5 6 5 3 4 4 4 5 6 3 2 3 3 1 2 3 2 0 1 3 4 4 5 2 5 4 1 5 9 10 10 11 12 9 11 13 13 12 14 14 14 13 14 16 17 18 17 18
8 6 4 4 5 6 7 8 8 11 12 13 13 8 5 7 2 2 6 2 2 7 3 2 4 4 2 3 2 1 2 2 4 5 9 10 8 7 7 7 7 6 3 1 2 3 4 6 3 2 4 5 5 4 4 3 2 3 3 4 5 5 3 2 3 4 3 5 7 7 9 12 13 11 11 12 12 13 16 16 16 16 17 17 18 19 19 18
7 6 3 2 3 5 6 7 6 8 10 12 13 9 6 7 5 5 6 2 2 7 4 2 2 3 4 5 4 1 1 2 5 6 8 9 9 7 6 7 8 4 5 3 3 4 6 5 4 6 5 7 6 5 5 4 4 4 4 4 4 3 2 3 4 4 2 4 6 5 8 11 12 12 13 14 14 16 17 16 15 16 16 16 17 17 18 16
6 5 3 1 2 4 5 6 5 5 8 10 10 9 8 8 7 6 5 2 1 5 6 4 1 1 1 3 3 3 3 2 4 7 7 8 8 7 5 7 7 4 6 7 6 4 4 2 7 7 6 8 6 6 6 5 5 5 4 5 3 2 2 2 5 5 3 4 6 6 8 10 11 12 13 17 19 17 15 14 14 15 16 17 16 14 14 13
5 4 3 2 2 2 3 4 4 3 6 8 8 9 10 9 7 6 3 3 1 4 5 5 5 4 3 1 2 4 3 1 1 5 8 8 7 6 5 4 5 6 6 6 7 6 1 6 6 7 7 8 7 8 7 5 5 5 4 6 4 2 4 3 3 3 4 5 6 8 9 8 8 10 10 11 13 14 14 15 15 16 17 17 16 14 14 14
5 4 3 3 3 3 4 3 2 2 4 5 6 9 10 9 7 5 2 3 3 4 3 5 5 5 5 1 2 2 3 1 1 3 7 7 5 4 3 3 5 6 6 6 6 7 2 5 4 8 7 8 8 7 8 6 5 4 6 6 4 2 4 2 2 4 5 6 5 4 7 3 5 6 6 5 7 10 12 14 15 16 16 16 16 16 16 16
5 5 4 3 3 3 3 1 2 3 3 2 5 8 9 8 6 5 4 4 4 4 2 3 1 3 5 1 1 3 5 3 2 3 7 7 5 4 2 4 4 2 4 5 4 3 3 4 4 6 7 8 8 7 7 6 7 3 4 5 4 4 4 4 5 5 4 1 3 3 6 2 2 5 7 6 6 8 10 11 13 15 15 15 16 16 15 14
5 5 5 4 3 3 2 2 3 2 2 2 5 7 7 7 6 5 4 4 5 3 2 3 2 2 4 3 2 4 2 4 3 4 6 7 6 5 5 5 4 2 4 3 3 1 5 7 5 5 7 8 8 7 6 7 7 1 5 4 6 6 6 5 5 5 3 4 2 7 6 6 6 3 5 6 7 8 9 10 11 13 13 14 15 15 14 13
5 5 5 5 4 2 1 2 1 1 2 3 6 7 7 6 4 3 4 2 3 2 1 3 2 3 6 5 4 5 2 1 1 4 7 7 6 6 7 4 2 3 5 4 3 2 4 6 7 6 7 7 6 2 5 9 6 2 5 3 4 5 5 5 5 5 2 4 5 7 6 6 6 3 6 7 8 9 10 10 10 12 13 13 14 14 14 13
7 4 4 5 4 3 2 2 0 1 2 3 6 7 7 4 3 4 4 0 1 1 1 1 1 3 8 5 4 4 3 3 2 4 7 8 6 4 3 2 2 2 5 7 5 1 3 3 4 6 6 5 2 3 3 7 3 4 6 4 4 4 4 5 6 5 2 5 7 5 7 6 5 3 5 7 7 8 9 8 9 11 12 12 13 14 14 14
8 4 3 4 5 3 1 1 2 2 2 4 6 7 5 3 3 4 2 1 1 1 1 1 3 5 9 5 4 3 3 3 1 4 6 4 5 4 0 2 2 3 4 7 8 3 4 3 2 6 6 2 3 5 2 3 3 6 7 5 5 6 5 5 5 4 4 7 7 5 7 6 5 3 3 4 4 5 6 7 8 10 11 12 12 14 15 15
8 5 3 4 4 2 1 1 3 2 2 4 5 6 4 3 4 3 1 1 1 1 1 1 3 6 8 5 1 1 2 3 3 5 5 4 6 6 3 3 3 5 6 7 8 6 6 6 4 7 8 4 4 4 3 3 6 7 6 6 6 6 5 5 5 5 6 6 4 6 6 6 6 3 0 2 3 4 5 6 7 9 11 12 13 14 15 16
6 5 3 4 4 2 2 1 0 2 3 4 5 4 4 4 3 0 2 2 1 1 1 2 5 7 7 3 1 3 1 2 2 4 4 3 4 4 6 4 2 4 6 4 4 4 6 8 7 7 9 10 8 6 5 5 7 7 7 7 6 6 6 6 6 6 7 5 5 6 6 5 7 7 5 4 5 6 7 6 7 8 10 11 13 15 16 17
5 5 3 4 4 4 4 3 3 3 5 6 4 4 5 4 1 2 2 2 1 3 2 3 6 7 6 3 1 4 1 1 2 2 2 2 4 4 5 5 4 6 4 2 2 3 4 6 9 8 7 12 12 7 5 6 7 9 8 7 7 7 7 8 7 7 8 3 5 6 5 5 6 8 9 8 7 9 10 10 10 10 11 12 13 14 15 17
3 3 3 4 5 5 5 4 4 5 6 6 4 5 4 3 1 2 0 1 3 2 2 5 7 6 3 1 3 4 1 2 3 1 3 3 4 4 5 5 6 7 5 5 5 5 6 3 8 7 4 10 13 10 9 6 6 10 9 8 8 8 8 8 6 8 8 2 6 6 5 5 4 2 4 6 6 9 11 12 11 11 12 14 14 14 14 16
2 2 1 3 5 5 4 4 4 5 7 6 5 4 3 1 1 1 1 2 2 3 5 6 6 6 3 4 4 4 3 2 2 2 3 3 2 2 2 0 3 4 4 5 2 3 8 4 5 5 3 6 10 11 10 8 6 7 7 8 9 9 8 7 4 4 5 3 4 6 4 6 5 1 4 6 7 10 11 12 13 13 14 14 15 17 17 18
1 1 1 3 3 3 3 3 3 5 7 6 5 3 1 2 2 1 1 2 2 4 8 6 4 4 3 3 4 3 3 2 2 2 2 2 2 1 2 4 2 2 4 4 2 2 7 3 4 3 3 6 7 6 6 8 5 3 6 9 8 8 9 9 5 1 1 7 7 7 7 7 7 7 10 12 11 11 12 13 14 14 14 14 14 16 18 19
3 3 4 3 3 2 3 3 3 5 6 6 4 1 1 1 2 2 2 3 2 3 7 4 0 2 3 2 3 2 3 2 2 2 2 2 1 2 4 5 4 2 1 3 3 1 5 6 3 5 6 5 4 5 7 10 8 4 6 6 4 5 7 8 7 4 6 9 9 8 10 9 8 7 8 13 14 13 14 14 15 15 14 14 14 16 18 19
4 4 5 4 3 4 3 2 3 5 6 5 1 1 0 1 2 2 3 3 3 3 5 4 0 2 3 3 3 2 4 4 1 2 3 3 2 3 3 3 4 3 3 2 4 0 2 7 6 6 5 1 3 6 8 9 10 10 8 4 4 8 8 7 8 8 9 10 8 9 12 10 10 7 6 11 13 13 14 14 14 14 14 14 15 16 18 18
4 3 5 5 4 4 3 2 3 4 5 3 1 2 1 2 3 2 3 3 3 3 4 3 1 2 3 4 5 5 4 4 4 3 3 2 2 3 1 0 1 2 3 3 5 1 2 7 6 3 2 1 2 6 8 7 9 9 7 6 8 9 9 9 8 8 10 11 10 11 12 10 9 10 10 10 10 11 13 13 13 14 15 15 15 16 17 18
3 2 4 6 2 2 3 2 3 4 3 2 1 1 2 2 3 1 3 3 4 3 3 3 3 4 4 4 6 5 4 4 5 4 2 1 2 3 3 4 2 2 4 5 5 3 4 6 7 6 5 6 6 6 9 9 6 7 7 8 9 8 8 10 9 9 11 11 10 11 12 10 8 7 10 11 9 10 12 12 11 13 15 16 16 17 17 17
2 2 4 6 2 1 2 2 2 3 1 0 1 1 2 0 1 0 1 2 4 4 4 5 6 5 5 6 5 4 4 5 5 5 3 2 4 2 4 5 5 6 6 7 6 4 4 6 7 9 8 9 10 10 11 10 8 7 7 8 10 9 9 10 11 11 11 12 11 11 13 11 6 3 7 9 8 9 12 12 12 13 15 16 17 18 17 17
3 1 4 7 4 2 3 1 2 1 2 1 1 0 1 2 3 3 2 4 5 4 4 5 6 6 6 6 5 4 5 6 6 5 4 4 4 1 4 5 6 7 5 8 7 4 4 6 8 10 11 13 15 15 15 15 14 13 11 11 11 11 10 10 11 10 10 12 12 12 14 12 6 5 7 9 9 10 13 14 13 14 15 16 17 18 18 19
6 4 4 7 5 2 3 1 2 0 0 2 1 1 1 2 4 4 4 4 4 3 4 4 4 4 4 3 5 6 5 5 6 5 4 6 2 4 6 7 6 6 5 7 7 3 3 6 8 9 11 12 15 16 16 18 17 13 12 11 11 11 11 11 11 11 9 10 11 12 13 11 8 8 9 11 13 13 15 17 16 14 14 15 17 18 19 20
6 6 7 10 6 1 3 1 1 0 1 1 2 2 2 3 4 5 4 3 2 3 4 4 3 3 3 3 4 7 5 3 4 3 3 5 0 5 5 8 6 5 4 4 4 2 2 5 7 8 10 9 10 10 10 12 9 6 8 9 10 12 13 12 11 11 10 13 16 15 12 10 8 7 9 12 13 13 15 19 19 17 15 16 18 19 20 20
2 3 6 11 10 6 3 4 3 1 1 1 4 3 3 3 1 2 4 4 3 4 5 4 3 4 4 4 5 7 6 4 4 3 3 5 4 0 5 8 7 7 3 3 4 5 5 7 7 8 10 10 9 7 6 5 5 5 9 11 12 14 14 11 9 9 10 14 18 16 13 12 13 12 11 12 13 14 16 19 20 20 19 17 18 20 20 19
2 2 3 7 10 10 7 5 4 2 2 3 3 3 4 4 2 1 3 4 3 4 5 4 5 5 5 5 6 7 7 6 6 5 5 6 6 4 5 9 10 9 2 3 3 5 6 8 9 11 12 12 13 13 11 10 9 10 13 15 15 15 14 11 8 9 10 12 14 15 15 16 17 17 16 15 14 14 15 17 19 19 18 17 17 19 20 19
2 2 4 4 3 5 5 4 4 3 1 3 2 1 2 4 2 1 2 2 1 3 5 4 4 4 4 4 5 5 7 8 7 8 8 8 7 7 8 9 11 9 4 2 3 4 6 9 11 13 15 16 17 19 17 15 15 15 16 17 17 16 16 13 12 14 13 11 12 14 15 15 15 18 19 19 18 16 14 15 18 19 20 19 18 19 20 20
4 2 3 3 1 2 2 3 5 4 1 2 2 1 3 5 3 2 2 2 2 3 3 3 4 3 3 3 4 5 6 7 7 7 8 7 7 7 8 9 10 8 6 7 7 4 5 10 12 14 16 18 19 20 19 16 16 17 18 19 19 19 19 17 17 19 16 13 13 15 16 14 14 19 22 21 22 20 18 18 19 20 20 20 20 21 21 20
5 2 2 3 1 1 2 3 5 5 3 2 2 2 4 5 4 2 2 3 4 3 2 4 5 3 3 4 4 6 6 6 7 7 6 7 8 8 7 7 7 6 6 7 6 4 5 7 9 11 14 18 19 19 19 18 17 17 19 21 20 20 20 19 19 20 20 19 18 19 20 16 15 20 23 24 26 26 25 26 24 21 21 21 21 22 21 21
5 2 1 2 1 1 1 3 4 4 2 2 2 2 3 5 4 3 3 4 4 3 2 5 6 5 6 6 6 8 8 8 9 8 7 8 8 7 6 5 4 5 7 7 6 7 7 7 8 8 10 15 18 18 18 18 18 18 19 21 21 20 20 19 18 17 19 19 18 19 19 16 16 21 24 26 28 27 27 28 24 23 26 26 24 22 20 20
6 5 3 3 1 1 1 2 2 4 2 2 2 1 1 4 3 4 6 7 7 7 6 6 6 6 8 8 9 9 8 7 9 11 11 11 11 10 8 6 6 7 8 8 8 7 7 8 9 9 9 13 15 16 17 17 17 18 20 21 21 18 16 15 14 14 14 14 15 17 15 13 15 18 20 24 25 23 24 26 25 27 31 28 23 21 20 19
7 5 4 3 2 1 1 2 2 3 1 1 2 2 2 3 2 3 6 4 5 6 5 5 7 7 7 10 10 8 6 7 11 15 15 15 16 16 15 15 15 13 10 9 8 8 8 8 8 8 9 12 15 15 14 13 13 14 14 15 16 17 16 16 14 15 15 13 13 13 13 14 16 16 17 19 19 19 21 23 23 23 24 23 21 20 18 16
Wind_Direction
12 11 12 11 10 13 12 17 20 19 220 223 223 213 202 193 184 182 181 185 192 198 211 227 240 251 252 247 250 250 222 216 240 261 259 260 255 230 221 201 199 202 210 229 226 205 182 185 184 182 186 185 199 189 179 191 190 198 218 225 225 218 201 162 182 185 98 133 140 153 172 172 153 152 144 140 139 141 147 149 154 144 120 121 136 149 165 177
14 17 19 18 22 27 37 51 59 64 84 139 170 172 173 175 175 180 182 188 195 206 223 236 246 255 252 238 231 208 180 175 226 222 213 210 156 149 153 160 168 172 177 191 197 186 180 184 180 182 186 186 189 179 179 182 192 212 227 222 227 203 112 64 111 109 53 146 143 149 174 178 154 150 161 175 156 158 166 151 161 157 143 144 144 160 169 172
14 20 23 23 32 37 46 56 61 66 75 91 130 148 157 166 169 176 184 191 200 213 224 236 244 251 239 212 189 170 139 169 182 161 157 139 129 132 135 150 159 159 163 172 178 180 183 180 178 186 192 191 184 183 188 179 193 217 227 230 212 134 101 84 107 108 83 142 148 149 159 158 140 147 175 193 166 179 199 162 171 176 157 151 148 159 166 168
13 21 30 33 41 49 52 54 55 60 68 75 100 124 142 156 162 173 181 188 197 204 209 215 220 233 208 177 175 142 129 186 164 144 146 132 127 130 134 151 161 156 152 158 166 169 171 175 181 191 199 195 179 189 192 177 192 199 213 263 91 144 148 119 126 119 115 145 155 148 155 157 139 157 184 195 189 201 211 175 168 178 160 155 155 162 166 167
15 21 36 47 51 55 56 55 55 54 60 67 84 108 136 150 159 170 172 175 179 183 182 182 192 191 167 165 166 144 190 209 146 148 148 128 128 128 130 149 154 144 143 153 163 171 172 179 186 192 206 194 172 191 190 175 198 198 207 328 55 172 160 118 120 111 116 135 153 156 165 153 143 176 193 210 224 224 132 153 149 156 156 157 162 166 166 168
18 25 37 54 60 60 56 57 58 55 57 61 69 89 127 147 161 167 163 166 166 170 166 165 175 158 152 160 153 159 253 184 127 156 143 123 123 111 118 132 137 132 145 157 163 184 186 184 189 193 205 196 180 192 175 168 209 229 200 183 92 200 112 118 124 108 114 160 165 159 143 146 169 186 191 227 248 36 59 124 147 148 150 155 162 168 168 171
24 31 37 52 64 61 57 54 56 58 60 63 67 74 94 127 159 162 160 163 159 163 155 156 160 145 145 146 144 188 241 109 133 164 134 121 111 98 113 116 122 118 131 156 171 191 188 190 197 195 201 194 186 187 163 171 208 246 201 157 151 98 117 119 122 118 109 162 145 141 158 181 202 181 178 222 227 90 106 140 150 148 146 152 160 168 170 173
27 32 38 48 56 58 56 50 51 51 54 60 65 70 80 107 149 154 157 156 154 158 144 150 147 139 143 142 177 200 156 125 155 168 139 121 101 100 117 114 119 105 106 138 176 197 196 200 199 195 204 185 184 178 165 180 202 237 213 146 150 119 127 119 123 130 111 129 124 191 197 189 210 215 203 207 168 142 148 150 159 155 152 156 162 168 171 173
30 33 40 48 53 56 50 46 48 44 42 46 52 60 70 91 135 150 155 149 150 148 137 147 138 144 148 139 218 207 139 147 172 168 160 134 106 110 112 112 130 107 100 98 154 202 210 208 194 204 225 159 177 171 177 201 198 208 182 145 151 136 135 134 137 132 118 139 178 217 201 170 171 238 223 189 155 154 159 166 166 162 163 164 166 170 171 173
35 39 45 50 54 57 52 45 41 38 35 34 37 44 55 72 113 145 153 147 146 139 138 145 134 151 146 144 242 218 136 164 169 169 187 179 135 114 109 119 126 104 181 175 135 206 230 221 190 210 240 160 173 162 184 215 148 152 158 143 142 138 144 156 149 141 153 147 209 229 198 167 168 224 212 152 153 168 166 174 171 170 172 170 170 172 173 175
40 45 50 54 56 58 58 49 41 39 37 32 29 33 42 53 83 137 158 153 146 139 138 140 139 152 144 179 265 159 135 172 173 182 206 203 186 158 164 193 138 85 215 193 173 174 305 199 175 195 208 166 167 151 155 156 112 147 158 150 143 150 157 175 173 164 191 159 177 234 204 179 191 222 179 114 144 173 171 175 172 177 174 172 173 171 177 180
45 49 55 57 58 59 58 56 51 47 43 37 33 34 34 39 61 123 160 158 147 141 138 141 151 147 148 205 285 92 167 203 200 214 222 205 201 189 185 210 181 151 154 164 265 206 183 151 177 208 175 164 167 155 136 118 141 155 172 181 161 178 187 185 184 178 212 167 139 227 224 206 206 203 137 109 141 164 172 174 171 181 175 174 176 175 183 183
48 52 58 60 61 62 62 61 55 48 43 37 36 38 38 44 54 107 153 159 148 136 135 142 156 145 164 198 127 159 207 195 195 223 227 199 198 197 196 205 161 142 138 98 286 201 198 167 192 229 176 190 161 125 127 129 155 160 187 223 178 204 205 178 184 194 205 154 137 223 239 206 191 177 142 132 155 159 172 176 173 180 178 182 184 188 192 189
49 56 61 65 67 67 64 58 49 41 33 27 28 32 40 50 66 96 132 150 141 131 131 143 157 142 181 190 123 244 203 191 195 203 206 191 191 197 203 198 161 144 135 99 226 200 206 183 183 184 179 233 117 130 144 142 174 172 182 228 214 230 179 142 168 198 195 149 159 222 253 209 169 162 156 163 174 170 174 175 179 183 184 194 195 202 205 199
50 59 65 71 71 68 61 52 41 34 28 27 29 32 46 66 82 96 114 130 130 125 121 137 154 152 205 183 175 245 160 173 193 197 192 177 185 195 191 191 176 175 154 149 201 192 185 168 183 181 150 129 147 166 178 163 188 187 193 214 213 234 151 123 144 196 202 158 175 215 251 216 162 156 157 175 184 185 188 182 184 189 191 203 207 211 215 211
50 59 69 75 73 67 56 45 35 31 31 33 37 45 71 92 93 92 86 92 114 126 120 122 142 185 232 147 119 118 102 146 193 201 187 171 181 189 181 186 184 218 251 195 183 153 154 151 160 167 146 162 183 198 198 184 195 195 223 233 194 219 199 132 137 177 202 168 185 215 255 254 160 155 150 166 183 189 200 193 190 199 203 214 220 221 223 220
49 60 73 76 72 64 51 43 35 32 31 30 41 52 75 107 102 88 66 47 55 101 122 117 137 198 229 135 124 105 92 167 190 190 183 176 179 179 180 184 188 220 190 167 163 149 159 159 158 167 178 201 209 219 211 213 209 187 218 242 204 229 236 169 138 151 183 205 205 215 239 262 170 159 159 166 181 192 207 209 204 211 217 224 231 233 231 227
49 63 76 76 69 59 50 45 36 31 29 25 30 36 48 95 104 88 39 14 13 57 115 139 175 212 171 145 138 100 91 148 171 178 180 179 178 176 179 175 179 178 159 161 161 170 182 180 199 195 184 201 205 220 228 243 240 198 208 228 214 220 234 237 138 130 181 216 220 216 225 242 215 174 176 176 182 197 215 226 227 227 230 233 239 243 241 238
48 66 78 74 64 54 48 41 32 32 30 26 19 16 30 42 131 113 11 8 17 305 23 125 210 284 96 122 124 84 66 106 154 172 177 180 181 175 178 178 179 182 186 181 159 177 201 186 208 218 194 191 196 229 257 341 349 223 212 250 251 225 232 228 104 98 204 223 223 225 227 235 229 201 192 188 189 210 228 238 242 239 242 245 247 248 248 245
43 60 77 73 59 47 42 37 33 34 31 30 30 28 29 12 221 155 4 6 55 344 347 12 282 333 91 116 123 57 53 110 150 167 181 185 177 175 188 191 191 199 210 203 139 159 222 216 210 220 183 149 122 64 11 42 62 151 233 250 252 252 255 201 116 107 154 245 234 232 237 241 240 228 212 201 196 218 236 240 241 240 246 250 251 251 250 248
36 46 70 73 53 40 39 38 37 37 30 32 40 51 39 6 344 14 352 296 6 359 346 279 258 236 213 171 175 20 54 154 156 167 189 185 180 190 189 192 208 203 175 99 100 142 222 236 198 90 62 89 109 109 117 130 158 211 237 247 238 238 248 124 122 132 146 247 239 223 241 247 245 244 236 221 210 223 235 238 240 242 249 252 253 254 249 248
31 37 52 67 41 32 34 33 36 36 27 32 42 53 43 14 3 359 345 267 348 10 18 351 257 241 245 223 224 235 217 199 160 164 185 180 193 208 178 195 223 194 133 152 187 177 216 227 106 95 93 103 119 140 163 171 183 219 236 250 248 222 203 138 152 177 176 243 241 222 246 253 248 246 241 235 232 235 237 240 245 248 253 254 252 250 245 244
21 23 26 36 23 27 28 25 32 30 22 31 41 38 23 8 0 0 348 273 325 28 29 28 55 25 275 231 237 215 225 249 163 160 177 179 195 216 201 208 217 172 160 194 215 220 220 143 95 119 148 143 148 163 177 186 201 229 250 254 248 133 241 219 152 171 194 239 268 273 270 266 255 248 243 239 240 242 238 238 244 248 251 250 248 245 240 239
7 360 360 350 332 352 354 2 18 13 15 26 30 21 13 7 3 11 357 270 111 58 40 56 72 48 36 208 200 204 227 288 133 152 175 189 185 198 217 216 201 186 185 197 227 245 193 81 102 147 168 175 177 176 192 218 221 213 231 261 270 155 244 282 117 163 207 215 253 275 271 258 237 237 239 229 232 236 231 230 235 237 239 240 241 243 240 239
358 342 329 322 318 323 323 326 323 339 10 19 11 5 4 5 5 11 322 242 128 81 55 78 81 46 35 95 163 221 239 143 73 143 171 197 191 179 183 193 216 204 177 175 225 245 106 86 141 162 180 198 194 198 208 232 252 218 205 236 259 209 214 236 174 212 234 202 190 266 279 238 175 210 218 191 203 217 215 220 227 227 228 228 231 237 238 238
346 347 330 310 313 326 340 329 265 311 11 3 340 346 353 354 351 351 301 217 108 57 20 87 89 38 43 30 164 254 236 143 90 166 174 191 195 206 186 176 221 215 154 174 231 260 109 122 177 173 193 206 213 232 210 214 262 254 161 178 211 220 208 207 215 230 262 242 154 238 279 275 213 223 204 187 199 203 200 209 221 223 219 220 225 229 230 229
330 336 336 328 310 312 342 285 270 325 2 313 322 336 342 338 341 344 286 188 99 17 358 60 13 32 38 340 266 259 248 107 115 153 173 185 177 218 229 178 199 167 140 199 235 196 129 146 177 191 206 212 225 237 185 197 253 259 110 145 185 201 208 212 232 241 284 330 228 213 243 274 276 242 173 191 212 209 206 208 215 217 211 213 219 220 218 215
336 319 335 341 313 300 303 272 292 352 302 307 330 332 328 328 341 319 268 187 79 330 11 49 7 20 4 327 254 268 333 101 173 136 169 194 172 212 238 216 221 146 151 222 238 136 148 172 184 193 212 221 232 238 152 193 241 98 109 149 181 202 228 222 243 253 264 306 260 199 200 257 264 189 154 187 213 220 218 209 207 207 203 206 209 209 210 208
351 324 330 338 325 305 267 250 198 241 288 328 330 324 323 323 312 263 256 315 62 319 47 343 317 354 339 318 212 237 274 249 320 100 162 191 178 206 252 218 239 149 170 233 260 130 146 183 190 204 228 234 218 59 128 203 228 107 129 151 171 199 229 223 247 267 234 266 271 197 185 253 278 204 179 188 210 230 229 215 206 203 202 208 209 209 210 207
356 347 337 341 337 317 261 244 240 247 315 331 322 326 322 294 260 244 236 82 223 62 58 317 338 338 332 334 159 184 233 222 89 135 164 175 185 200 65 107 224 234 198 226 253 236 141 130 183 220 240 266 85 76 83 195 142 130 159 185 194 200 214 227 243 263 253 253 254 188 182 243 275 247 206 193 212 246 238 212 196 197 207 214 214 214 214 211
358 360 354 351 346 348 72 240 259 275 337 323 326 330 299 248 250 260 54 80 260 59 156 307 355 339 343 359 82 97 204 189 157 189 191 171 185 193 191 186 211 233 229 224 232 218 179 185 202 208 217 211 145 133 127 146 157 173 202 211 215 213 211 230 225 221 249 251 201 157 175 223 247 254 155 157 192 243 243 215 199 205 217 220 220 220 221 220
2 3 6 8 358 16 80 129 325 24 348 332 331 305 267 235 236 281 90 158 220 44 73 355 354 344 347 339 3 23 345 164 150 218 232 213 205 197 208 222 227 232 237 220 196 202 215 217 202 190 196 201 204 195 166 166 186 206 222 218 230 236 223 240 234 216 244 241 144 151 179 215 244 258 266 240 212 221 229 226 228 237 243 239 230 224 224 224
6 3 17 31 34 63 83 85 55 22 358 349 316 266 263 257 223 70 92 174 61 31 10 334 330 327 318 275 3 18 303 112 72 237 245 252 238 222 217 234 269 266 262 282 291 262 242 202 183 184 189 200 214 221 197 190 197 207 216 218 229 246 249 250 241 236 251 226 134 150 179 230 255 250 246 240 224 219 220 225 236 245 251 254 246 234 228 226
15 13 37 64 76 89 90 77 43 11 5 352 287 249 260 263 82 66 242 80 45 351 316 327 317 306 288 232 43 19 256 105 53 274 218 217 231 233 223 210 228 254 265 269 278 268 268 234 181 182 157 182 204 230 243 244 218 213 224 233 237 250 262 260 256 264 267 204 140 152 175 226 238 179 191 207 214 223 224 226 232 241 247 252 252 243 233 228
26 22 69 93 93 98 91 75 47 12 2 334 273 250 265 271 98 150 242 38 20 326 321 311 294 275 222 150 99 40 12 53 47 312 238 228 253 259 275 173 209 244 256 251 253 246 263 265 161 155 109 170 208 233 247 262 251 221 223 236 239 247 258 265 279 304 306 290 183 180 208 235 237 217 199 203 213 219 221 221 224 236 245 246 247 241 231 227
64 54 107 106 101 107 96 78 48 12 352 312 268 254 297 22 31 43 41 360 331 344 325 292 255 263 243 170 158 118 42 345 311 293 237 219 296 302 54 42 39 250 252 259 279 255 257 250 127 158 212 208 236 253 237 247 260 214 218 238 246 251 260 265 262 145 278 273 249 218 227 238 247 253 228 218 221 215 211 214 217 229 239 241 241 234 225 223
103 86 85 100 114 107 94 80 35 5 337 300 280 317 36 64 24 19 38 346 317 341 320 297 183 296 279 248 213 136 25 322 233 255 252 210 218 119 109 80 54 12 323 284 281 286 277 272 245 254 250 205 225 265 245 238 248 247 241 253 267 256 255 258 260 248 233 253 254 223 217 227 246 251 211 206 216 215 209 212 215 221 228 232 231 225 220 219
120 96 70 70 83 75 76 86 37 356 318 290 250 76 299 143 69 38 31 350 307 306 304 293 347 306 280 278 282 328 335 310 231 275 278 234 188 131 130 110 73 44 33 306 269 221 291 278 265 261 269 162 170 241 248 228 226 248 271 284 263 254 251 239 246 256 250 254 256 228 219 231 244 242 210 205 212 215 213 210 210 212 216 221 221 216 216 216
146 113 46 29 50 69 63 56 21 334 299 282 173 134 143 120 106 55 8 341 295 294 300 290 274 262 270 289 298 309 309 299 306 300 268 238 186 142 131 340 97 56 13 307 283 290 283 277 270 229 221 255 222 238 256 239 215 232 256 255 248 256 262 254 247 252 256 258 260 250 241 243 244 241 242 235 221 215 212 204 204 208 210 213 213 213 214 214
159 158 35 17 25 74 46 11 337 310 292 320 354 113 132 128 128 89 12 343 302 290 296 300 286 264 276 292 289 291 290 284 292 283 257 263 208 143 70 4 313 317 318 276 266 287 278 269 269 252 233 253 258 248 263 273 251 234 240 244 248 251 256 261 258 254 259 262 263 264 259 254 254 245 240 240 234 223 215 205 205 209 209 209 210 213 216 216
135 166 36 17 7 74 11 349 354 330 306 31 11 124 110 7 271 198 55 337 300 280 281 293 285 276 287 291 282 284 288 280 274 267 257 241 231 200 52 19 323 316 311 269 260 295 288 269 274 273 260 258 265 271 277 283 284 271 264 261 260 258 258 263 261 252 253 258 262 268 266 264 270 245 225 233 238 230 220 212 209 213 215 214 213 214 217 220
52 81 34 15 22 40 329 324 73 345 290 37 44 48 24 320 290 293 314 306 289 268 266 277 279 280 280 282 291 297 288 282 275 270 261 247 251 288 53 28 324 304 308 282 279 346 336 278 272 272 269 268 271 275 275 271 272 273 269 265 267 267 262 261 266 266 263 265 268 267 265 265 264 239 234 243 246 237 228 220 218 222 224 222 219 217 219 221
45 54 24 0 10 8 307 271 120 205 350 55 4 256 271 276 279 293 302 302 295 280 274 276 280 285 284 293 299 293 292 289 273 267 262 258 263 72 51 21 340 288 292 293 288 6 11 271 269 273 275 276 274 270 261 253 256 263 262 261 267 273 273 270 273 279 276 269 269 265 261 263 262 246 243 249 245 235 229 226 225 229 230 228 225 222 221 221
58 56 24 360 356 305 282 324 5 294 87 69 259 232 229 261 283 291 295 308 320 306 291 287 288 281 286 300 287 283 296 295 261 263 280 274 215 83 34 12 359 294 305 339 319 346 308 267 278 283 283 284 275 266 252 241 242 267 283 283 281 282 289 293 284 277 271 262 260 260 259 264 267 249 238 243 237 222 220 226 229 230 229 229 228 225 223 222
47 49 32 19 31 61 70 32 360 311 34 308 272 268 259 244 233 288 294 295 292 296 295 288 290 284 282 287 276 272 274 264 261 274 280 274 262 32 359 356 333 301 331 36 331 311 289 275 275 273 275 280 280 281 287 276 272 287 291 289 285 283 289 296 290 277 274 270 264 262 265 272 273 263 250 247 238 224 224 228 229 230 228 229 230 228 227 226
13 8 20 18 37 60 75 54 12 319 330 314 277 273 267 244 177 156 275 272 260 278 282 276 283 280 269 273 274 269 264 256 258 263 267 275 271 279 333 329 305 294 324 60 328 301 279 267 263 261 265 272 278 287 296 295 285 284 285 282 280 280 278 276 271 266 272 277 272 271 279 283 282 277 267 257 248 241 239 233 225 225 228 231 233 231 230 229
41 18 7 347 20 55 77 65 23 358 344 312 291 297 269 259 261 206 225 241 268 282 272 259 264 269 264 273 279 275 271 264 259 263 272 280 280 284 300 301 288 280 273 244 253 263 268 264 262 263 264 267 275 282 287 286 279 280 283 281 277 276 272 264 258 261 267 272 270 272 278 281 288 292 284 273 265 260 254 242 230 227 228 229 232 232 228 225
54 93 40 2 340 5 30 35 8 350 301 277 283 283 271 264 268 262 227 249 274 268 260 236 227 244 269 277 280 276 271 271 268 268 273 279 283 289 291 287 277 268 263 254 240 243 271 268 266 268 269 270 275 279 282 282 279 277 276 275 274 272 268 262 260 262 262 262 266 271 270 265 274 281 278 274 274 272 269 268 262 253 245 236 231 230 226 224
51 98 74 17 10 7 357 338 326 310 277 273 269 247 266 269 264 272 285 283 271 252 250 258 252 267 287 274 271 270 268 277 279 274 283 290 288 289 291 284 271 260 267 268 259 262 273 269 272 276 275 275 275 277 279 278 276 275 272 271 270 267 265 264 263 262 261 260 263 265 264 260 258 263 264 265 269 271 272 276 274 267 259 246 233 229 228 228
53 60 32 324 271 119 323 290 293 290 256 234 245 227 262 271 272 292 282 267 271 261 239 264 276 290 290 278 266 266 274 285 283 278 285 288 284 287 288 281 272 273 281 284 278 271 267 273 281 281 277 274 273 273 273 272 273 274 273 272 269 267 267 266 262 260 259 260 258 255 258 262 257 257 260 263 263 261 260 262 259 255 254 248 234 228 228 229
64 59 38 306 266 130 279 269 278 287 264 201 242 271 273 265 277 316 294 266 263 271 271 280 293 292 282 273 268 275 292 297 281 279 281 276 275 280 278 271 279 288 285 279 277 271 267 273 278 275 271 270 270 268 269 273 279 277 271 267 263 261 260 258 257 256 255 258 260 255 255 260 258 256 260 262 258 252 251 251 248 249 249 243 231 226 226 226
57 52 36 325 273 155 267 276 256 269 294 46 313 287 278 281 296 312 297 271 247 263 273 283 292 293 282 276 278 296 325 304 281 281 280 274 271 270 267 265 267 270 270 271 271 265 262 267 271 270 269 270 272 274 278 284 283 271 263 258 253 249 249 253 259 260 257 257 259 258 259 264 266 267 268 263 254 247 246 245 244 246 243 231 223 222 222 215
Height
1509 1508 1507 1506 1505 1505 1504 1503 1503 1502 1502 1502 1502 1502 1502 1503 1503 1504 1505 1506 1506 1507 1508 1508 1509 1509 1509 1510 1510 1511 1511 1511 1512 1513 1513 1512 1511 1511 1511 1511 1512 1512 1513 1513 1514 1515 1516 1517 1518 1519 1519 1520 1519 1518 1519 1519 1519 1518 1515 1513 1511 1506 1505 1504 1504 1506 1505 1507 1511 1515 1515 1515 1518 1521 1521 1522 1523 1524 1525 1526 1527 1528 1528 1528 1529 1530 1530 1531
1509 1508 1507 1506 1506 1505 1504 1504 1503 1502 1502 1502 1502 1502 1502 1503 1503 1504 1505 1505 1506 1506 1507 1507 1508 1508 1509 1509 1510 1510 1511 1511 1512 1513 1512 1511 1510 1510 1511 1511 1512 1512 1512 1513 1514 1515 1516 1516 1517 1518 1518 1517 1517 1517 1517 1517 1518 1514 1511 1511 1507 1503 1505 1506 1506 1507 1506 1508 1511 1514 1516 1515 1516 1519 1521 1520 1521 1523 1523 1525 1527 1527 1528 1528 1529 1530 1530 1531
1508 1508 1507 1506 1506 1505 1505 1504 1504 1503 1503 1502 1502 1502 1502 1503 1503 1504 1505 1505 1506 1506 1506 1507 1507 1507 1508 1509 1510 1510 1511 1511 1511 1512 1511 1511 1511 1511 1511 1512 1512 1512 1512 1513 1513 1514 1515 1515 1516 1517 1516 1515 1515 1516 1515 1516 1516 1512 1511 1509 1504 1503 1507 1509 1510 1510 1510 1510 1511 1515 1516 1516 1517 1519 1520 1519 1519 1521 1520 1521 1524 1525 1527 1528 1529 1530 1530 1532
1508 1507 1507 1506 1506 1506 1505 1505 1504 1504 1503 1503 1503 1503 1503 1503 1503 1504 1504 1505 1505 1506 1506 1506 1507 1507 1508 1508 1509 1510 1510 1510 1510 1511 1511 1511 1511 1511 1511 1511 1512 1512 1512 1513 1513 1514 1514 1515 1516 1516 1515 1512 1513 1515 1513 1514 1514 1511 1511 1506 1503 1505 1508 1511 1512 1513 1514 1513 1512 1515 1517 1517 1519 1520 1519 1518 1519 1518 1517 1519 1522 1523 1526 1528 1529 1530 1531 1532
1508 1507 1507 1506 1506 1506 1506 1505 1505 1504 1504 1504 1504 1503 1503 1503 1504 1504 1504 1505 1505 1505 1506 1506 1506 1507 1507 1508 1509 1509 1510 1508 1509 1511 1510 1510 1511 1511 1511 1511 1512 1512 1512 1513 1513 1514 1514 1515 1515 1515 1513 1510 1512 1513 1511 1512 1513 1511 1509 1507 1507 1508 1508 1512 1514 1515 1516 1515 1514 1515 1516 1517 1519 1520 1520 1519 1517 1516 1517 1520 1523 1524 1526 1527 1528 1529 1531 1532
1508 1507 1507 1506 1506 1506 1506 1505 1505 1505 1504 1504 1504 1504 1504 1504 1504 1504 1504 1504 1505 1505 1505 1505 1506 1506 1507 1508 1509 1509 1509 1507 1508 1510 1510 1510 1511 1511 1511 1511 1511 1512 1512 1512 1513 1514 1514 1514 1514 1513 1511 1508 1510 1510 1509 1513 1514 1509 1508 1509 1511 1510 1510 1513 1516 1516 1517 1516 1515 1516 1516 1518 1519 1519 1520 1520 1518 1518 1520 1522 1524 1525 1526 1527 1528 1529 1530 1532
1508 1508 1507 1507 1506 1506 1506 1506 1505 1505 1505 1504 1504 1504 1504 1504 1504 1504 1504 1504 1504 1505 1505 1505 1506 1506 1507 1508 1508 1509 1508 1507 1509 1510 1510 1510 1510 1511 1511 1511 1511 1511 1512 1512 1513 1513 1513 1513 1511 1510 1509 1508 1508 1508 1509 1512 1513 1509 1507 1510 1513 1513 1513 1515 1517 1518 1518 1517 1517 1518 1518 1519 1518 1518 1520 1520 1520 1522 1522 1523 1524 1525 1526 1527 1528 1529 1530 1531
1508 1508 1507 1507 1506 1506 1506 1506 1505 1505 1505 1505 1504 1504 1504 1504 1504 1504 1504 1504 1504 1504 1504 1505 1505 1506 1507 1507 1508 1507 1508 1508 1509 1509 1510 1510 1510 1511 1511 1511 1511 1511 1512 1512 1513 1513 1512 1511 1510 1509 1507 1507 1508 1508 1510 1512 1512 1510 1507 1510 1513 1514 1515 1517 1518 1519 1519 1519 1519 1519 1518 1519 1519 1520 1520 1520 1521 1522 1523 1523 1525 1525 1526 1527 1528 1529 1530 1531
1508 1508 1507 1507 1506 1506 1506 1506 1506 1505 1505 1505 1505 1505 1504 1504 1504 1504 1504 1504 1504 1504 1504 1505 1505 1506 1506 1507 1507 1506 1506 1508 1508 1509 1510 1510 1510 1511 1511 1511 1511 1511 1512 1512 1512 1512 1511 1510 1509 1509 1507 1507 1508 1509 1511 1510 1509 1508 1508 1510 1513 1515 1516 1517 1518 1519 1519 1519 1519 1519 1518 1519 1521 1521 1519 1519 1521 1522 1523 1524 1524 1525 1526 1527 1528 1529 1530 1531
1508 1508 1507 1507 1506 1506 1506 1506 1506 1506 1505 1505 1505 1505 1504 1504 1504 1504 1504 1504 1504 1504 1504 1505 1505 1506 1506 1507 1506 1504 1506 1508 1508 1509 1509 1510 1510 1511 1511 1511 1511 1511 1512 1512 1511 1511 1511 1509 1509 1510 1508 1508 1508 1509 1510 1509 1508 1509 1510 1511 1513 1515 1517 1518 1518 1519 1519 1519 1520 1518 1518 1519 1521 1520 1517 1518 1521 1521 1522 1523 1524 1525 1526 1527 1528 1529 1530 1531
1509 1508 1507 1507 1507 1506 1506 1506 1506 1506 1506 1505 1505 1505 1504 1504 1504 1504 1504 1504 1504 1504 1505 1505 1505 1506 1506 1507 1505 1503 1506 1508 1508 1509 1509 1510 1510 1511 1511 1511 1511 1511 1512 1511 1511 1511 1510 1510 1510 1510 1508 1507 1508 1510 1511 1510 1510 1511 1511 1512 1514 1515 1516 1517 1517 1518 1518 1519 1520 1518 1518 1519 1520 1518 1515 1518 1520 1521 1522 1522 1523 1524 1525 1527 1528 1529 1530 1531
1509 1508 1508 1507 1507 1507 1506 1506 1506 1506 1506 1505 1505 1504 1504 1504 1504 1504 1504 1504 1504 1504 1505 1505 1506 1506 1506 1506 1505 1505 1507 1507 1508 1508 1508 1509 1510 1510 1511 1511 1511 1511 1511 1511 1511 1510 1510 1510 1510 1510 1508 1507 1507 1509 1511 1512 1512 1512 1511 1511 1513 1514 1515 1515 1516 1518 1517 1518 1520 1520 1519 1518 1517 1515 1515 1519 1520 1521 1522 1521 1523 1524 1524 1526 1527 1529 1530 1531
1509 1509 1508 1508 1508 1507 1507 1507 1506 1506 1506 1505 1505 1505 1504 1504 1504 1503 1504 1504 1504 1504 1505 1505 1506 1506 1506 1506 1506 1506 1507 1507 1507 1508 1508 1509 1509 1510 1510 1510 1510 1510 1510 1511 1510 1510 1510 1510 1510 1510 1509 1507 1507 1509 1511 1513 1513 1512 1511 1510 1512 1514 1512 1512 1515 1517 1517 1518 1520 1521 1519 1512 1510 1514 1516 1519 1520 1521 1521 1521 1522 1523 1524 1526 1527 1528 1529 1531
1510 1509 1509 1509 1508 1508 1508 1507 1507 1506 1506 1505 1505 1505 1504 1504 1504 1503 1504 1504 1504 1504 1505 1505 1506 1506 1506 1505 1506 1506 1506 1507 1507 1508 1508 1509 1510 1510 1510 1510 1510 1510 1510 1510 1510 1510 1510 1510 1510 1510 1510 1509 1509 1511 1511 1512 1512 1510 1512 1511 1509 1510 1509 1510 1515 1516 1516 1518 1520 1522 1518 1507 1506 1513 1516 1519 1520 1520 1520 1520 1521 1522 1524 1525 1526 1528 1529 1530
1511 1510 1510 1509 1509 1509 1508 1508 1507 1507 1506 1505 1505 1505 1504 1504 1504 1504 1504 1504 1504 1504 1505 1505 1505 1506 1506 1505 1506 1506 1506 1507 1507 1508 1508 1508 1510 1510 1510 1511 1511 1510 1510 1510 1510 1510 1510 1510 1510 1509 1510 1510 1510 1510 1508 1510 1510 1509 1514 1512 1507 1508 1508 1510 1515 1515 1515 1517 1518 1521 1516 1505 1506 1513 1516 1518 1520 1519 1519 1519 1521 1521 1523 1524 1525 1527 1528 1529
1511 1511 1510 1510 1510 1509 1509 1508 1508 1507 1507 1506 1505 1505 1504 1504 1504 1504 1504 1504 1504 1504 1505 1505 1505 1506 1505 1504 1505 1506 1506 1507 1507 1507 1507 1508 1510 1510 1510 1511 1511 1510 1510 1510 1510 1510 1510 1511 1511 1510 1510 1510 1509 1506 1506 1509 1509 1508 1510 1508 1507 1508 1506 1509 1514 1514 1515 1516 1517 1518 1513 1505 1506 1512 1516 1518 1519 1519 1518 1518 1520 1521 1522 1523 1524 1525 1526 1527
1512 1511 1511 1511 1510 1510 1509 1509 1508 1508 1507 1506 1506 1505 1505 1505 1504 1504 1504 1504 1504 1504 1505 1505 1505 1506 1504 1504 1505 1506 1506 1506 1506 1507 1507 1508 1509 1509 1510 1511 1511 1511 1510 1510 1510 1511 1511 1511 1511 1510 1509 1508 1505 1504 1507 1511 1509 1507 1508 1506 1508 1508 1506 1508 1512 1513 1515 1515 1515 1515 1513 1508 1507 1511 1515 1517 1518 1518 1517 1517 1518 1520 1521 1521 1522 1523 1524 1525
1513 1512 1512 1511 1511 1511 1510 1510 1509 1508 1507 1507 1506 1506 1505 1505 1504 1504 1504 1504 1504 1504 1504 1504 1505 1504 1504 1504 1505 1505 1506 1505 1506 1506 1507 1508 1508 1509 1510 1510 1511 1510 1510 1510 1510 1510 1510 1510 1509 1507 1507 1508 1506 1505 1508 1509 1505 1505 1508 1508 1509 1510 1509 1509 1510 1513 1514 1515 1513 1513 1514 1510 1508 1511 1515 1517 1518 1518 1517 1517 1517 1518 1519 1519 1520 1520 1521 1522
1513 1513 1512 1512 1512 1511 1511 1510 1510 1509 1508 1507 1506 1506 1505 1505 1505 1504 1504 1503 1504 1503 1502 1503 1504 1502 1502 1504 1505 1505 1505 1505 1505 1506 1507 1508 1508 1509 1509 1510 1510 1510 1509 1507 1508 1510 1509 1509 1509 1507 1506 1506 1506 1504 1504 1504 1504 1506 1508 1509 1509 1510 1508 1507 1511 1515 1514 1515 1514 1512 1512 1510 1507 1509 1512 1515 1517 1517 1517 1517 1517 1517 1518 1518 1518 1518 1519 1520
1514 1513 1513 1513 1512 1512 1511 1511 1510 1509 1508 1507 1507 1506 1505 1505 1503 1503 1504 1504 1504 1503 1502 1503 1504 1503 1503 1504 1505 1505 1505 1505 1505 1506 1507 1507 1508 1509 1509 1510 1509 1509 1507 1505 1506 1509 1509 1508 1506 1504 1503 1504 1506 1506 1506 1507 1508 1510 1511 1511 1511 1511 1508 1506 1512 1516 1516 1516 1512 1509 1510 1508 1506 1506 1508 1512 1514 1516 1516 1515 1516 1516 1516 1516 1515 1515 1516 1517
1514 1514 1513 1513 1513 1512 1512 1511 1511 1510 1509 1508 1507 1507 1507 1507 1504 1504 1505 1504 1504 1503 1503 1503 1503 1503 1504 1504 1505 1505 1505 1505 1505 1506 1506 1507 1508 1508 1508 1508 1508 1506 1506 1507 1508 1509 1510 1507 1503 1503 1505 1506 1509 1510 1510 1511 1511 1512 1512 1512 1511 1511 1509 1509 1514 1516 1517 1518 1512 1509 1512 1510 1507 1506 1506 1509 1511 1512 1512 1512 1513 1513 1513 1513 1512 1513 1513 1514
1514 1514 1513 1513 1513 1512 1512 1511 1511 1510 1510 1509 1509 1508 1508 1508 1506 1506 1505 1504 1503 1503 1502 1502 1502 1503 1503 1504 1504 1504 1505 1504 1504 1506 1505 1507 1508 1506 1506 1506 1505 1503 1506 1509 1508 1508 1508 1504 1503 1507 1509 1510 1512 1511 1511 1512 1513 1513 1511 1511 1510 1508 1509 1512 1516 1516 1517 1518 1511 1509 1513 1509 1505 1505 1505 1506 1507 1508 1508 1509 1510 1510 1510 1510 1510 1510 1511 1512
1514 1513 1513 1513 1512 1512 1512 1511 1511 1511 1510 1510 1509 1509 1508 1507 1506 1506 1505 1504 1503 1503 1503 1502 1502 1503 1503 1503 1503 1503 1504 1502 1502 1505 1505 1507 1507 1506 1505 1504 1503 1504 1507 1507 1505 1506 1505 1503 1505 1510 1510 1511 1513 1513 1512 1513 1513 1512 1510 1510 1509 1508 1511 1512 1515 1517 1516 1517 1513 1511 1513 1508 1503 1503 1501 1502 1503 1503 1506 1507 1508 1509 1509 1508 1508 1509 1509 1510
1514 1513 1513 1513 1512 1512 1512 1511 1511 1510 1510 1510 1510 1509 1508 1507 1506 1505 1505 1503 1501 1502 1503 1502 1502 1503 1503 1503 1503 1503 1503 1502 1502 1504 1505 1506 1506 1506 1505 1503 1503 1504 1504 1504 1505 1504 1503 1506 1509 1511 1510 1510 1512 1513 1513 1513 1511 1510 1511 1510 1507 1510 1513 1511 1513 1517 1515 1516 1516 1514 1513 1504 1498 1500 1497 1497 1501 1502 1503 1505 1506 1507 1507 1507 1507 1507 1508 1508
1514 1513 1513 1512 1512 1512 1511 1512 1511 1510 1511 1510 1510 1509 1507 1507 1505 1505 1505 1502 1501 1502 1502 1503 1503 1503 1504 1503 1503 1503 1503 1503 1503 1504 1505 1505 1506 1505 1504 1504 1504 1502 1502 1505 1506 1502 1504 1510 1511 1511 1511 1509 1511 1511 1510 1511 1508 1507 1509 1509 1508 1510 1512 1512 1514 1516 1515 1515 1515 1515 1514 1501 1493 1497 1496 1495 1499 1499 1500 1501 1502 1502 1503 1504 1505 1506 1506 1507
1513 1513 1512 1512 1512 1511 1511 1511 1510 1511 1510 1510 1510 1508 1507 1507 1505 1506 1504 1497 1499 1502 1501 1502 1502 1503 1504 1503 1503 1504 1502 1502 1503 1504 1504 1505 1505 1505 1504 1504 1503 1502 1503 1505 1505 1502 1506 1512 1511 1510 1511 1510 1510 1509 1506 1509 1509 1507 1507 1507 1509 1510 1512 1513 1514 1514 1512 1510 1511 1514 1515 1506 1495 1492 1491 1493 1496 1496 1496 1498 1498 1498 1500 1501 1502 1503 1504 1505
1513 1512 1512 1511 1511 1511 1511 1511 1510 1511 1510 1510 1509 1507 1507 1506 1504 1506 1503 1499 1503 1505 1502 1502 1502 1503 1504 1503 1503 1502 1502 1502 1503 1504 1504 1504 1505 1506 1503 1502 1502 1503 1504 1506 1506 1504 1506 1511 1512 1511 1510 1509 1509 1506 1504 1507 1508 1508 1507 1507 1509 1510 1512 1513 1512 1512 1509 1507 1509 1509 1511 1512 1502 1490 1488 1491 1494 1494 1494 1494 1495 1495 1497 1498 1499 1500 1502 1503
1512 1512 1511 1511 1510 1510 1510 1510 1510 1510 1510 1509 1508 1507 1507 1505 1505 1505 1503 1508 1511 1504 1502 1503 1503 1504 1504 1503 1502 1501 1501 1502 1501 1503 1504 1504 1505 1505 1503 1500 1500 1502 1504 1506 1505 1504 1505 1508 1509 1509 1509 1507 1503 1501 1502 1506 1507 1507 1508 1508 1508 1510 1511 1510 1510 1509 1507 1512 1511 1504 1507 1512 1501 1488 1488 1492 1493 1493 1491 1490 1491 1492 1494 1496 1497 1499 1500 1502
1512 1511 1511 1510 1510 1510 1510 1510 1510 1510 1509 1508 1507 1508 1506 1505 1507 1502 1500 1512 1512 1502 1503 1505 1502 1503 1502 1500 1501 1501 1501 1500 1501 1502 1503 1504 1504 1504 1503 1501 1501 1502 1504 1504 1502 1502 1504 1505 1505 1506 1506 1503 1500 1501 1503 1505 1506 1507 1509 1509 1509 1511 1510 1510 1510 1506 1509 1518 1512 1501 1505 1509 1498 1485 1485 1490 1492 1491 1487 1486 1488 1490 1492 1494 1495 1497 1499 1500
1511 1510 1510 1510 1509 1509 1509 1509 1509 1509 1509 1508 1507 1507 1505 1506 1505 1502 1507 1514 1508 1502 1504 1503 1502 1503 1501 1498 1498 1499 1500 1499 1500 1502 1503 1504 1504 1504 1503 1503 1503 1502 1502 1503 1501 1500 1502 1505 1505 1504 1503 1500 1501 1505 1506 1506 1507 1508 1509 1509 1509 1510 1509 1510 1508 1506 1514 1517 1505 1497 1500 1507 1503 1486 1480 1486 1488 1486 1484 1484 1486 1489 1491 1493 1494 1496 1497 1498
1511 1510 1510 1510 1509 1509 1509 1510 1509 1508 1508 1508 1507 1506 1506 1505 1499 1503 1513 1513 1504 1503 1503 1502 1502 1501 1499 1499 1498 1498 1498 1498 1500 1501 1501 1501 1502 1503 1503 1503 1503 1502 1501 1500 1499 1497 1500 1503 1502 1500 1501 1501 1502 1506 1507 1507 1507 1508 1507 1506 1509 1508 1509 1511 1508 1511 1520 1513 1498 1495 1498 1506 1507 1490 1478 1482 1485 1484 1484 1483 1485 1487 1489 1491 1492 1494 1495 1496
1511 1510 1510 1510 1510 1509 1509 1510 1509 1509 1508 1507 1507 1506 1505 1503 1501 1504 1509 1507 1505 1505 1503 1503 1503 1500 1500 1501 1499 1498 1497 1498 1499 1499 1498 1498 1498 1499 1499 1498 1498 1502 1501 1496 1496 1497 1496 1495 1495 1497 1499 1500 1501 1502 1506 1508 1507 1506 1504 1505 1510 1507 1506 1511 1508 1510 1512 1502 1495 1498 1500 1505 1503 1487 1479 1481 1482 1484 1484 1484 1485 1486 1487 1488 1489 1491 1493 1494
1511 1511 1510 1510 1510 1509 1510 1510 1509 1509 1508 1507 1507 1505 1503 1504 1506 1506 1504 1503 1506 1506 1504 1505 1503 1500 1500 1499 1498 1499 1498 1498 1499 1498 1498 1497 1497 1496 1495 1495 1495 1500 1500 1497 1498 1499 1494 1489 1490 1496 1497 1497 1497 1497 1501 1504 1503 1504 1501 1503 1509 1505 1506 1512 1508 1503 1499 1495 1497 1498 1502 1507 1498 1482 1477 1478 1479 1481 1483 1484 1485 1486 1487 1488 1488 1489 1490 1491
1511 1510 1510 1510 1510 1510 1510 1510 1509 1509 1508 1507 1506 1504 1505 1508 1508 1508 1505 1503 1505 1505 1504 1505 1503 1500 1499 1499 1500 1499 1498 1499 1498 1498 1498 1497 1498 1496 1493 1495 1496 1497 1499 1500 1500 1499 1499 1495 1491 1493 1493 1492 1494 1492 1492 1493 1496 1498 1493 1495 1500 1498 1500 1505 1499 1493 1489 1494 1503 1505 1505 1504 1493 1480 1474 1474 1477 1479 1480 1482 1484 1486 1487 1487 1487 1488 1489 1490
1511 1510 1511 1510 1510 1510 1510 1510 1510 1509 1508 1507 1504 1503 1506 1508 1506 1506 1506 1505 1505 1506 1504 1503 1502 1500 1498 1499 1501 1500 1499 1500 1498 1497 1497 1495 1496 1495 1494 1495 1496 1497 1499 1501 1499 1497 1500 1496 1487 1489 1490 1490 1491 1489 1487 1489 1493 1492 1489 1493 1495 1490 1491 1495 1494 1494 1493 1496 1503 1506 1502 1489 1479 1475 1472 1474 1477 1476 1479 1480 1481 1484 1484 1485 1486 1486 1487 1488
1511 1511 1511 1511 1510 1510 1510 1510 1510 1509 1508 1507 1504 1503 1506 1508 1507 1506 1508 1508 1508 1507 1504 1501 1499 1499 1497 1497 1499 1500 1500 1500 1498 1497 1496 1495 1496 1496 1497 1499 1499 1498 1498 1499 1498 1497 1499 1493 1486 1489 1490 1488 1489 1487 1487 1491 1492 1491 1492 1493 1488 1484 1488 1494 1498 1501 1505 1505 1496 1493 1494 1484 1476 1474 1468 1471 1474 1473 1476 1477 1478 1481 1481 1482 1483 1483 1484 1485
1511 1511 1511 1511 1511 1510 1510 1510 1510 1510 1509 1505 1505 1507 1508 1510 1510 1508 1509 1510 1509 1508 1507 1504 1502 1502 1501 1499 1498 1498 1500 1499 1498 1498 1497 1496 1497 1498 1499 1501 1500 1499 1498 1498 1497 1497 1500 1495 1487 1487 1488 1487 1488 1489 1488 1488 1489 1492 1494 1490 1485 1487 1490 1494 1500 1502 1504 1503 1488 1481 1488 1486 1481 1474 1464 1465 1470 1470 1471 1473 1474 1477 1477 1478 1479 1480 1481 1482
1511 1511 1511 1511 1511 1511 1511 1511 1510 1510 1508 1505 1508 1512 1510 1510 1511 1511 1511 1511 1510 1509 1508 1506 1505 1504 1504 1503 1500 1498 1501 1500 1497 1498 1498 1496 1498 1499 1498 1500 1501 1500 1499 1499 1498 1497 1501 1499 1489 1484 1487 1487 1487 1490 1489 1486 1487 1490 1489 1486 1488 1496 1495 1493 1500 1503 1499 1497 1487 1480 1483 1481 1474 1466 1459 1461 1465 1466 1466 1467 1469 1472 1473 1475 1476 1477 1479 1479
1512 1512 1512 1512 1512 1511 1511 1511 1511 1510 1508 1506 1508 1512 1511 1510 1513 1513 1513 1512 1511 1510 1508 1506 1506 1506 1505 1505 1503 1501 1502 1502 1499 1499 1499 1497 1498 1499 1499 1500 1501 1501 1500 1499 1499 1497 1500 1503 1496 1486 1487 1489 1487 1488 1488 1486 1487 1488 1488 1487 1486 1491 1491 1488 1490 1493 1492 1491 1486 1479 1477 1472 1463 1456 1454 1455 1457 1460 1462 1463 1465 1467 1469 1472 1473 1474 1476 1477
1512 1512 1513 1513 1512 1512 1511 1511 1511 1510 1508 1508 1509 1510 1511 1512 1513 1514 1515 1514 1512 1510 1509 1507 1508 1508 1506 1505 1505 1503 1503 1504 1502 1501 1500 1498 1499 1501 1501 1502 1501 1500 1501 1499 1498 1499 1500 1503 1500 1489 1486 1489 1488 1485 1484 1483 1485 1487 1489 1489 1486 1485 1486 1484 1483 1482 1483 1486 1484 1479 1473 1460 1449 1448 1450 1451 1451 1455 1458 1460 1463 1464 1466 1468 1470 1472 1473 1474
1512 1511 1513 1514 1512 1512 1512 1511 1511 1511 1510 1511 1511 1511 1512 1514 1513 1513 1515 1514 1513 1512 1510 1509 1509 1508 1508 1507 1505 1504 1504 1504 1502 1501 1501 1499 1499 1501 1503 1505 1503 1501 1501 1498 1497 1501 1503 1503 1502 1496 1490 1489 1485 1480 1478 1480 1483 1485 1486 1485 1485 1484 1486 1490 1488 1478 1475 1478 1477 1477 1472 1456 1444 1445 1448 1448 1449 1452 1454 1457 1460 1462 1464 1465 1467 1469 1471 1472
1512 1512 1514 1514 1513 1513 1512 1511 1513 1513 1511 1512 1513 1514 1515 1515 1514 1513 1514 1514 1513 1512 1511 1511 1509 1508 1508 1507 1506 1505 1505 1505 1502 1501 1501 1499 1498 1500 1504 1507 1505 1502 1503 1500 1498 1502 1507 1505 1503 1498 1490 1486 1482 1479 1480 1481 1481 1483 1483 1481 1481 1482 1486 1494 1494 1482 1477 1476 1471 1471 1470 1455 1444 1446 1447 1447 1449 1451 1452 1455 1457 1459 1461 1463 1464 1466 1468 1470
1514 1515 1515 1514 1513 1513 1512 1511 1513 1513 1512 1514 1516 1516 1516 1516 1515 1514 1514 1514 1513 1512 1512 1511 1510 1510 1509 1508 1508 1507 1506 1506 1504 1501 1501 1499 1498 1503 1506 1507 1506 1503 1503 1503 1500 1504 1508 1505 1501 1497 1487 1480 1478 1476 1476 1477 1479 1482 1481 1479 1480 1482 1483 1488 1489 1485 1484 1482 1477 1476 1472 1457 1445 1444 1446 1446 1447 1449 1451 1453 1455 1456 1458 1461 1463 1464 1465 1467
1517 1517 1516 1515 1513 1513 1512 1512 1513 1513 1514 1516 1516 1516 1516 1516 1516 1515 1514 1514 1514 1513 1513 1511 1511 1512 1510 1510 1511 1509 1507 1509 1506 1502 1502 1501 1502 1506 1507 1507 1507 1504 1505 1507 1507 1508 1509 1504 1503 1503 1496 1489 1484 1479 1474 1473 1478 1486 1486 1483 1484 1486 1487 1488 1487 1485 1484 1482 1478 1476 1470 1457 1447 1444 1445 1446 1445 1446 1448 1450 1451 1453 1455 1458 1460 1461 1462 1464
1517 1517 1517 1516 1514 1514 1515 1516 1516 1515 1516 1517 1516 1516 1516 1515 1516 1517 1516 1515 1515 1515 1514 1513 1512 1512 1511 1511 1511 1509 1508 1509 1508 1505 1504 1504 1503 1505 1507 1508 1507 1505 1507 1511 1510 1510 1510 1506 1505 1507 1505 1499 1492 1486 1481 1481 1486 1490 1491 1489 1488 1488 1490 1492 1492 1491 1488 1481 1474 1470 1465 1456 1448 1445 1445 1447 1446 1445 1446 1447 1448 1449 1451 1453 1456 1458 1459 1460
1518 1518 1518 1518 1516 1517 1518 1519 1519 1517 1517 1518 1517 1516 1516 1515 1515 1517 1517 1515 1515 1516 1515 1513 1513 1512 1512 1512 1512 1510 1508 1507 1508 1507 1506 1505 1504 1504 1507 1509 1508 1507 1508 1510 1510 1511 1510 1507 1505 1506 1504 1498 1491 1486 1484 1488 1491 1492 1491 1489 1488 1488 1488 1491 1495 1493 1488 1483 1475 1469 1467 1462 1455 1451 1448 1447 1445 1445 1445 1444 1444 1446 1448 1450 1452 1454 1456 1457
1520 1522 1523 1522 1520 1518 1519 1520 1520 1519 1520 1520 1518 1517 1517 1515 1515 1516 1516 1515 1515 1516 1515 1513 1513 1513 1513 1513 1514 1513 1509 1507 1507 1507 1507 1506 1504 1505 1508 1508 1508 1507 1507 1508 1509 1510 1509 1506 1503 1503 1502 1496 1490 1487 1485 1487 1490 1491 1491 1489 1487 1486 1485 1488 1490 1486 1483 1483 1478 1470 1470 1470 1465 1459 1455 1451 1447 1445 1445 1444 1443 1444 1445 1447 1449 1450 1452 1454
1523 1526 1527 1526 1523 1521 1520 1521 1522 1521 1521 1521 1519 1519 1518 1517 1516 1517 1516 1515 1515 1515 1515 1514 1513 1513 1513 1515 1515 1514 1511 1510 1509 1508 1507 1507 1506 1507 1508 1507 1506 1505 1505 1505 1505 1507 1509 1506 1501 1500 1499 1494 1490 1487 1486 1487 1487 1488 1488 1486 1484 1483 1483 1484 1483 1480 1479 1480 1474 1468 1469 1471 1468 1462 1457 1454 1450 1446 1445 1446 1446 1445 1443 1443 1446 1447 1449 1451
1525 1527 1527 1527 1525 1524 1524 1525 1524 1523 1521 1521 1520 1520 1519 1518 1517 1517 1517 1517 1516 1515 1515 1515 1513 1512 1512 1514 1515 1514 1512 1511 1511 1509 1509 1510 1511 1510 1509 1507 1504 1503 1503 1502 1502 1506 1508 1503 1498 1499 1498 1493 1490 1487 1485 1486 1486 1484 1483 1481 1479 1478 1478 1479 1478 1476 1474 1472 1469 1467 1466 1465 1463 1457 1451 1450 1450 1447 1446 1446 1446 1446 1445 1443 1443 1444 1445 1447
1528 1527 1527 1527 1525 1525 1526 1526 1525 1522 1520 1521 1520 1519 1519 1519 1518 1518 1518 1519 1518 1516 1515 1516 1514 1513 1513 1513 1514 1513 1510 1510 1511 1511 1511 1513 1513 1510 1509 1507 1504 1502 1503 1502 1502 1504 1504 1501 1497 1499 1499 1493 1488 1487 1486 1484 1483 1481 1479 1476 1474 1475 1475 1475 1474 1472 1471 1469 1466 1466 1465 1462 1456 1450 1446 1447 1447 1445 1443 1442 1442 1445 1446 1443 1440 1440 1443 1444
1528 1528 1528 1527 1524 1525 1525 1524 1524 1522 1518 1519 1519 1519 1520 1519 1519 1520 1519 1518 1518 1517 1515 1515 1515 1515 1514 1512 1512 1512 1511 1511 1512 1512 1512 1513 1512 1510 1508 1506 1505 1504 1503 1503 1503 1502 1502 1500 1496 1497 1499 1491 1484 1484 1484 1482 1482 1481 1478 1475 1473 1474 1473 1471 1468 1467 1467 1467 1467 1467 1464 1456 1448 1444 1443 1442 1440 1438 1437 1436 1437 1439 1441 1439 1437 1438 1440 1441
1528 1528 1528 1527 1524 1524 1524 1523 1522 1521 1518 1518 1520 1520 1521 1520 1519 1522 1521 1517 1517 1517 1516 1516 1517 1516 1514 1512 1511 1512 1513 1514 1513 1512 1512 1511 1509 1508 1506 1505 1505 1504 1502 1502 1502 1500 1500 1499 1495 1496 1496 1487 1481 1481 1481 1484 1487 1480 1470 1466 1467 1467 1467 1465 1464 1463 1462 1464 1466 1463 1455 1447 1441 1439 1439 1436 1433 1431 1431 1431 1432 1433 1434 1434 1434 1435 1437 1438